Sanford, FL

6:29 AM EDT on May 27, 2018 (GMT -0400)
Orlando Sanford

Weather History for KSFB - May, 2013

Change the Weather History Date:

Wednesday, May 15, 2013

  Actual Average Record
Temperature  
Mean Temperature 70 °F 77 °F  
Max Temperature 84 °F 88 °F 98 °F (1967)
Min Temperature 57 °F 66 °F 50 °F (1960)
Degree Days  
Heating Degree Days 0 0  
Month to date heating degree days 0  
Since 1 July heating degree days 598  
Cooling Degree Days 6 12  
Month to date cooling degree days 161  
Year to date cooling degree days 573  
Growing Degree Days 20 (Base 50)    
Moisture  
Dew Point 56 °F    
Average Humidity 61    
Maximum Humidity 93    
Minimum Humidity 35    
Precipitation  
Precipitation 0.00 in 0.10 in 3.17 in (1971)
Month to date precipitation 1.13  
Year to date precipitation 12.86  
Snow  
Snow 0.00 in - - ()
Month to date snowfall  
Since 1 July snowfall  
Snow Depth -    
Sea Level Pressure  
Sea Level Pressure 30.17 in    
Wind  
Wind Speed 4 mph (ESE)    
Max Wind Speed 13 mph    
Max Gust Speed -    
Visibility 10 miles    
Events Rain    
T = Trace of Precipitation, MM = Missing Value Source: NWS Daily Summary

Daily Weather History Graph

Daily Weather History Graph

Search for Another Location

Airport or City:

Astronomy

May. 15, 2013 Rise Set
Actual Time 6:33 AM EDT 8:09 PM EDT
Civil Twilight 6:07 AM EDT 8:35 PM EDT
Nautical Twilight 5:37 AM EDT 9:06 PM EDT
Astronomical Twilight 5:04 AM EDT 9:38 PM EDT
Moon 11:03 AM EDT (5/15) No Moon Set
Length of Visible Light 14h 27m
Length of Day
13h 35m
Waxing Crescent, 26% of the Moon is Illuminated
May 15
Waxing Crescent
May 18
First Quarter
May 25
Full
May 31
Last Quarter
Jun 8
New

Hourly Weather History & Observations

Time (EDT) Temp. Heat Index Dew Point Humidity Pressure Visibility Wind Dir Wind Speed Gust Speed Precip Events Conditions
12:53 AM 64.9 °F - 55.9 °F 73% 30.21 in 10.0 mi ENE 3.5 mph - N/A   Clear
1:53 AM 63.0 °F - 55.9 °F 78% 30.20 in 10.0 mi ENE 3.5 mph - N/A   Clear
2:53 AM 63.0 °F - 57.0 °F 81% 30.19 in 10.0 mi Calm Calm - N/A   Clear
3:53 AM 60.1 °F - 55.9 °F 86% 30.17 in 10.0 mi Calm Calm - N/A   Clear
4:53 AM 60.1 °F - 55.9 °F 86% 30.17 in 10.0 mi Calm Calm - N/A   Clear
5:53 AM 60.1 °F - 57.0 °F 90% 30.18 in 10.0 mi Calm Calm - N/A   Clear
6:53 AM 57.9 °F - 55.9 °F 93% 30.21 in 10.0 mi Calm Calm - N/A   Clear
7:53 AM 66.0 °F - 62.1 °F 87% 30.22 in 10.0 mi Calm Calm - 0.00 in Rain Light Rain
8:53 AM 72.0 °F - 60.1 °F 66% 30.23 in 10.0 mi Calm Calm - 0.00 in   Clear
9:53 AM 75.0 °F - 55.9 °F 51% 30.23 in 10.0 mi Calm Calm - 0.00 in   Clear
10:53 AM 77.0 °F - 54.0 °F 45% 30.23 in 10.0 mi SW 5.8 mph - N/A   Clear
11:53 AM 79.0 °F - 55.0 °F 44% 30.23 in 10.0 mi Variable 3.5 mph - N/A   Clear
12:53 PM 82.0 °F - 52.0 °F 35% 30.21 in 10.0 mi East 10.4 mph - N/A   Clear
1:53 PM 82.0 °F 81.3 °F 54.0 °F 38% 30.19 in 10.0 mi Calm Calm - N/A   Clear
2:53 PM 84.0 °F 82.9 °F 55.0 °F 37% 30.16 in 10.0 mi East 9.2 mph - N/A   Partly Cloudy
3:53 PM 82.9 °F 82.1 °F 55.9 °F 39% 30.14 in 10.0 mi ESE 10.4 mph - N/A   Clear
4:53 PM 82.0 °F 81.2 °F 53.1 °F 37% 30.13 in 10.0 mi East 12.7 mph - N/A   Clear
5:53 PM 81.0 °F - 51.1 °F 35% 30.12 in 10.0 mi East 10.4 mph - N/A   Clear
6:53 PM 80.1 °F - 51.1 °F 36% 30.12 in 10.0 mi SE 9.2 mph - N/A   Clear
7:53 PM 77.0 °F - 55.0 °F 47% 30.12 in 10.0 mi SE 8.1 mph - N/A   Clear
8:53 PM 73.0 °F - 57.0 °F 57% 30.12 in 10.0 mi SE 8.1 mph - N/A   Clear
9:53 PM 71.1 °F - 59.0 °F 66% 30.12 in 10.0 mi SE 8.1 mph - N/A   Clear
10:53 PM 69.1 °F - 60.1 °F 73% 30.14 in 10.0 mi SSE 5.8 mph - N/A   Clear
11:53 PM 69.1 °F - 61.0 °F 75% 30.12 in 10.0 mi SSE 8.1 mph - N/A   Clear